This is the latest recevied weather packets stored in our database for station/object W8KVG. If no packets are shown the sender has not sent any weather packets the latest 10 day(s).
| Time | Temp. | Humidity | Pressure | Rain* | Wind** | Luminosity | Snow |
|---|---|---|---|---|---|---|---|
| 1777580038 | 10° C | 72% | 1012.7 hPa | 0 mm | - | 252 W/m² | - |
| 1777579734 | 9.44° C | 73% | 1012.6 hPa | 0 mm | - | 190 W/m² | - |
| 1777579432 | 8.89° C | 72% | 1012.5 hPa | 0 mm | - | 139 W/m² | - |
| 1777579128 | 8.89° C | 75% | 1012.7 hPa | 0 mm | - | 67 W/m² | - |
| 1777578827 | 8.89° C | 74% | 1012.6 hPa | 0 mm | - | 66 W/m² | - |
| 1777578523 | 8.89° C | 74% | 1012.8 hPa | 0 mm | - | 72 W/m² | - |
| 1777578218 | 8.89° C | 73% | 1012.8 hPa | 0 mm | - | 42 W/m² | - |
| 1777577914 | 8.89° C | 74% | 1012.6 hPa | 0 mm | - | 45 W/m² | - |
| 1777577610 | 8.89° C | 73% | 1012.7 hPa | 0 mm | - | 74 W/m² | - |
| 1777577307 | 8.89° C | 75% | 1012.6 hPa | 0 mm | - | 159 W/m² | - |
| 1777577003 | 8.89° C | 72% | 1012.7 hPa | 0 mm | - | 76 W/m² | - |
| 1777576700 | 8.89° C | 74% | 1012.7 hPa | 0 mm | - | 48 W/m² | - |
| 1777576399 | 8.89° C | 73% | 1012.7 hPa | 0 mm | - | 42 W/m² | - |
| 1777576096 | 8.89° C | 74% | 1012.6 hPa | 0 mm | - | 78 W/m² | - |
| 1777575791 | 9.44° C | 73% | 1012.6 hPa | 0 mm | - | 115 W/m² | - |
| 1777575488 | 9.44° C | 71% | 1012.8 hPa | 0 mm | - | 145 W/m² | - |
| 1777575184 | 9.44° C | 72% | 1012.8 hPa | 0 mm | - | 176 W/m² | - |
| 1777574880 | 8.89° C | 75% | 1012.7 hPa | 0 mm | - | 172 W/m² | - |
| 1777574577 | 8.89° C | 75% | 1012.8 hPa | 0 mm | - | 172 W/m² | - |
| 1777574273 | 8.89° C | 77% | 1012.7 hPa | 0 mm | - | 87 W/m² | - |
| 1777573969 | 8.89° C | 76% | 1012.8 hPa | 0 mm | - | 104 W/m² | - |
| 1777573664 | 8.89° C | 75% | 1012.8 hPa | 0 mm | - | 130 W/m² | - |
| 1777573360 | 8.33° C | 76% | 1012.7 hPa | 0 mm | - | 122 W/m² | - |
| 1777573055 | 8.89° C | 75% | 1012.8 hPa | 0 mm | - | 56 W/m² | - |
| 1777572753 | 8.89° C | 76% | 1012.7 hPa | 0 mm | - | 76 W/m² | - |
* Rain latest hour (hover to see other rain measurements)
** Current wind speed in m/s (hover to see current wind gust speed)